Lid_Strength_Index
-0 -1 -0 3 10 11 11 9 6 7 6 4 4 5 6 6 7 10 1 0 -0 -0 -1 -1 -1 -1 -1 -2 -2 -1 -1 -1 -2 -1 -2 -2 -1 -2 -2 -2 -2 -2 -2 -2 -2 -2 -2 -2 -2
-1 0 1 5 12 14 11 7 8 6 5 4 4 5 6 7 3 3 2 -0 -0 -1 -1 -1 -2 -2 -1 -2 -1 -2 -2 -1 -1 -2 -1 -2 -2 -2 -2 -2 -2 -2 -2 -2 -2 -2 -2 -2 -2
-0 0 6 9 12 13 10 7 6 5 4 5 6 4 5 6 3 2 0 -0 -0 -1 -1 -2 -1 -1 -1 -1 -1 -1 -1 -2 -2 -1 -2 -2 -2 -2 -2 -2 -2 -2 -2 -2 -2 -2 -2 -2 -2
2 3 5 10 12 8 7 6 5 5 5 5 5 7 3 2 2 1 -0 -1 -0 -1 -1 -1 -1 -1 -1 -1 -2 -1 -2 -2 -2 -2 -2 -2 -2 -2 -2 -2 -2 -2 -2 -2 -1 -2 -1 -1 -2
2 5 10 13 10 7 6 5 5 7 6 6 5 7 5 2 0 0 -0 -0 -0 -0 -1 -1 -1 -1 -1 -1 -1 -1 -2 -2 -2 -2 -2 -2 -2 -2 -2 -2 -2 -2 -2 -2 -2 -2 -2 -2 -2
6 5 12 12 9 7 6 5 6 6 5 5 5 6 5 1 1 0 -0 -0 -0 -0 -1 -1 -1 -2 -2 -1 -1 -1 -1 -2 -2 -2 -2 -2 -2 -2 -2 -2 -2 -2 -2 -2 -2 -2 -2 -2 -2
7 10 11 10 9 8 7 4 6 6 6 6 4 7 4 2 1 0 -0 -0 -0 -1 -1 -1 -1 -2 -1 -2 -2 -1 -2 -2 -2 -2 -2 -2 -2 -2 -2 -2 -2 -2 -2 -2 -2 -2 -1 -1 -1
6 8 10 10 11 10 6 5 5 6 6 3 3 7 6 2 0 0 -0 -0 0 -0 -1 -1 -1 -1 -2 -2 -2 -2 -2 -2 -2 -2 -2 -2 -2 -2 -2 -2 -2 -2 -2 -2 -1 -1 -1 -1 -1
4 10 12 10 9 9 6 7 4 3 5 4 3 3 2 1 1 1 1 1 0 0 -0 -1 -1 -1 -2 -1 -2 -2 -2 -2 -2 -2 -2 -2 -1 -1 -1 -2 -1 -1 -1 -2 -1 -1 -2 -2 -2
7 11 10 8 6 7 6 6 5 5 6 5 4 3 2 1 1 2 2 2 1 1 1 -0 -1 -1 -1 -1 -2 -2 -2 -1 -2 -2 -2 -2 -2 -2 -2 -2 -2 -1 -2 -2 -2 -2 -3 -2 -1
6 10 8 8 6 5 7 6 5 6 7 5 5 4 3 2 2 2 2 1 1 1 0 -0 -1 -1 -1 -1 -1 -1 -1 -1 -1 -2 -2 -2 -2 -2 -2 -1 -1 -2 -2 -1 -1 -1 -2 -1 -1
8 6 6 6 6 6 7 6 6 5 5 3 3 3 3 3 2 2 2 1 1 1 0 -0 -1 -1 -2 -1 -1 -1 -1 -2 -1 -2 -2 -2 -1 -2 -1 -1 -2 -2 -2 -2 -2 -1 -2 -1 -2
7 6 6 5 5 6 5 7 7 6 4 3 3 3 3 2 2 1 1 1 1 1 0 -0 -1 -1 -1 -2 -1 -1 -1 -1 -1 -1 -2 -2 -1 -1 -1 -2 -1 -2 -2 -1 -1 -1 -1 -1 -1
5 6 6 6 6 6 8 7 6 6 3 3 3 3 3 2 2 2 1 1 1 0 0 -0 -1 -1 -1 -1 -2 -2 -2 -2 -1 -1 -2 -3 -2 -1 -1 -1 -1 -1 -1 -1 -2 -1 -1 -1 -1
5 8 7 7 7 7 6 9 9 6 4 4 4 3 3 2 2 2 1 1 1 0 -0 -0 -0 -1 -1 -1 -1 -1 -1 -1 -1 -1 -3 -2 -2 -2 -2 -1 -1 -1 -2 -2 -2 -2 -2 -1 -1
7 8 11 8 7 7 7 12 8 5 5 5 4 4 3 3 2 1 1 1 0 0 0 -0 -1 -1 -1 -1 -2 -1 -1 -1 -1 -1 -2 -2 -2 -2 -2 -1 -1 -2 -2 -1 -1 -1 -0 -1 -0
8 11 12 11 7 8 8 11 8 5 5 5 5 4 4 3 2 2 1 1 0 0 -0 -0 -1 -0 -1 -1 -1 -2 -2 -1 -1 -2 -2 -2 -2 -2 -2 -1 -1 -2 -1 -1 -1 -1 -1 -0 -0
12 11 11 11 9 8 9 11 8 6 5 6 5 5 4 4 3 2 1 1 1 0 -0 -0 -0 -1 -1 -1 -2 -1 -1 -1 -1 -2 -1 -2 -2 -2 -2 -1 -2 -1 -1 -1 -1 -1 -1 -1 -0
8 9 13 10 7 9 10 11 9 7 7 7 7 5 5 4 3 1 1 1 1 0 1 0 1 -1 -0 0 0 0 0 -0 -1 -1 -2 -2 -2 -2 -2 -1 -2 -2 -1 -1 -1 -1 -1 0 -1
8 10 11 10 7 9 10 11 8 7 8 7 7 6 6 4 3 2 2 1 1 1 1 0 -0 -0 -0 -1 -0 -0 0 -1 -1 -1 -2 -2 -2 -2 -2 -1 -1 -1 -1 -1 -1 -1 1 0 -1
7 9 10 10 8 8 10 12 11 8 7 6 6 5 5 4 5 3 2 2 1 1 1 1 -0 -0 -1 -1 -1 -1 -1 -0 0 0 -0 -1 -2 -2 -2 -2 -2 -2 -1 -0 -1 -1 -1 1 0
9 6 10 12 10 14 8 17 12 10 9 7 6 6 6 5 4 3 2 3 1 1 0 -0 -0 -0 -1 -1 -0 -0 1 1 0 0 -0 -0 -2 -2 -2 -2 -2 -2 -1 -1 -1 -1 -0 0 1
9 6 7 9 10 10 11 15 14 10 11 9 6 5 5 5 4 3 3 2 1 1 1 0 -0 -0 -1 -1 -1 0 0 1 -0 0 -1 -1 -2 -2 -1 -2 -2 -2 -1 -1 -1 -1 -0 -0 1
5 7 7 7 8 13 11 11 15 12 10 9 7 5 5 4 3 3 3 1 2 1 0 0 0 0 -0 -0 -0 -0 0 0 1 0 1 0 -0 -1 -2 -2 -2 -2 -2 -1 -1 -1 -1 -0 -0
6 8 12 14 13 13 8 10 12 10 7 7 7 6 4 4 3 4 3 3 2 2 1 1 0 1 -0 -0 0 -0 -0 -0 -0 0 0 0 1 0 -0 -2 -1 -1 -2 -1 -2 -1 -1 -1 -0
7 8 11 15 14 12 9 12 11 6 5 5 5 5 4 4 3 3 3 3 2 2 1 1 1 1 0 -0 -0 -0 -1 0 0 -0 0 0 -0 -0 -1 -1 -2 -2 -1 -1 -2 -1 -1 -1 -1
7 9 6 10 10 11 11 10 8 6 6 6 6 5 5 5 3 3 3 2 2 1 2 1 1 0 0 -0 -0 -0 -1 -0 -0 -1 -1 -0 -1 -1 -1 -1 -1 -2 -1 -1 -2 -0 -1 -1 -1
6 5 9 9 14 14 14 13 15 9 8 6 6 6 5 5 4 3 3 2 2 1 1 0 0 1 0 -0 -0 -0 -0 -1 -1 -1 -0 -1 -1 -1 -1 -1 -1 -1 -1 -1 -2 -1 -1 -1 -0
7 8 7 7 8 12 14 13 8 7 7 7 6 5 5 5 4 3 3 2 2 1 1 1 1 1 0 0 -0 -0 -0 -1 -1 -0 -1 -1 -1 -1 -1 -1 -1 -1 -1 -1 -1 -1 -1 -0 -1
6 7 7 10 10 9 9 13 6 6 6 5 5 5 5 5 4 3 3 2 2 3 1 1 1 1 0 0 -0 -0 -0 -1 -0 -0 -1 -1 -1 -1 -1 -1 -1 -1 -1 -1 -1 -0 -1 -0 -0